This is the latest recevied weather packets stored in our database for station/object EA3HRE-10. If no packets are shown the sender has not sent any weather packets the latest 10 day(s).
| Time | Temp. | Humidity | Pressure | Rain* | Wind** | Luminosity | Snow |
|---|---|---|---|---|---|---|---|
| 1787939763 | 27.78° C | 27% | 1016.3 hPa | - | - | - | - |
| 1787938863 | 26.67° C | 34% | 1016.3 hPa | - | - | - | - |
| 1787937963 | 26.67° C | 34% | 1016.5 hPa | - | - | - | - |
| 1787937063 | 26.67° C | 34% | 1016.6 hPa | - | - | - | - |
| 1787936163 | 26.11° C | 34% | 1016.5 hPa | - | - | - | - |
| 1787935263 | 26.67° C | 33% | 1016.8 hPa | - | - | - | - |
| 1787934364 | 27.22° C | 33% | 1016.7 hPa | - | - | - | - |
| 1787933463 | 27.22° C | 33% | 1016.8 hPa | - | - | - | - |
| 1787932563 | 27.22° C | 32% | 1016.8 hPa | - | - | - | - |
| 1787931663 | 27.22° C | 31% | 1017 hPa | - | - | - | - |
| 1787930762 | 27.78° C | 31% | 1016.9 hPa | - | - | - | - |
| 1787929863 | 27.22° C | 31% | 1016.9 hPa | - | - | - | - |
| 1787928962 | 27.78° C | 29% | 1016.7 hPa | - | - | - | - |
| 1787928062 | 27.78° C | 28% | 1016.7 hPa | - | - | - | - |
| 1787927162 | 27.78° C | 27% | 1016.7 hPa | - | - | - | - |
| 1787926262 | 29.44° C | 23% | 1016.7 hPa | - | - | - | - |
| 1787925362 | 29.44° C | 21% | 1016.8 hPa | - | - | - | - |
| 1787924462 | 29.44° C | 21% | 1017.1 hPa | - | - | - | - |
| 1787923562 | 29.44° C | 23% | 1017.2 hPa | - | - | - | - |
| 1787922662 | 30° C | 22% | 1017.3 hPa | - | - | - | - |
| 1787921761 | 29.44° C | 22% | 1017.5 hPa | - | - | - | - |
| 1787920860 | 30° C | 30% | 1017.7 hPa | - | - | - | - |
| 1787919960 | 29.44° C | 31% | 1017.5 hPa | - | - | - | - |
| 1787919060 | 29.44° C | 30% | 1017.7 hPa | - | - | - | - |
| 1787918160 | 29.44° C | 30% | 1017.6 hPa | - | - | - | - |
* Rain since midnight (hover to see other rain measurements)
** Current wind speed in m/s (hover to see current wind gust speed)